When you browse on this site, cookies collect data to enhance your experience and personalize the content and advertising you see.
Visit our Privacy Policy to learn more. By continuing to use the site, you agree to this use of cookies and data.
  • Em Portugal
  • Lista de países
  • Para 7 dias
  • Temperatura da água
  • Mapa do tempo
  • Widgets de tempo
  • user-avatar
    Iniciar Sessão

    Previsão horária em Stralkovo

    Hoje, 20 Setembro, Sexta-feira

    Tempo Temperatura Precipitação Vento Pressão Humidade
    00:00 +5°C° 0 mm 3 m/s 747 mmHg 90%
    01:00 +4°C° 0 mm 4 m/s 747 mmHg 92%
    02:00 +4°C° 0 mm 3 m/s 747 mmHg 95%
    03:00 +4°C° 0 mm 4 m/s 747 mmHg 93%
    04:00 +4°C° 0 mm 4 m/s 747 mmHg 92%
    05:00 +5°C° 0 mm 4 m/s 747 mmHg 90%
    06:00 +5°C° 0 mm 5 m/s 747 mmHg 86%
    07:00 +5°C° 0 mm 6 m/s 747 mmHg 83%
    08:00 +5°C° 0 mm 6 m/s 747 mmHg 78%
    09:00 +7°C° 0 mm 6 m/s 747 mmHg 73%
    10:00 +7°C° 0 mm 6 m/s 748 mmHg 69%
    11:00 +8°C° 0 mm 7 m/s 748 mmHg 65%
    12:00 +8°C° 0.1 mm 6 m/s 748 mmHg 62%
    13:00 +9°C° 0.1 mm 6 m/s 748 mmHg 59%
    14:00 +9°C° 0.1 mm 6 m/s 748 mmHg 56%
    15:00 +9°C° 0.1 mm 5 m/s 748 mmHg 58%
    16:00 +9°C° 0.1 mm 5 m/s 748 mmHg 59%
    17:00 +8°C° 0.1 mm 4 m/s 748 mmHg 61%
    18:00 +7°C° 0 mm 4 m/s 749 mmHg 66%
    19:00 +5°C° 0 mm 3 m/s 749 mmHg 70%
    20:00 +4°C° 0 mm 3 m/s 749 mmHg 74%
    21:00 +3°C° 0 mm 3 m/s 750 mmHg 77%
    22:00 +4°C° 0 mm 2 m/s 750 mmHg 79%
    23:00 +3°C° 0 mm 2 m/s 750 mmHg 81%

    Amanhã, 21 Setembro, Sábado

    Tempo Temperatura Precipitação Vento Pressão Humidade
    00:00 +3°C° 0 mm 2 m/s 750 mmHg 82%
    01:00 +3°C° 0 mm 2 m/s 750 mmHg 83%
    02:00 +3°C° 0 mm 2 m/s 750 mmHg 83%
    03:00 +3°C° 0 mm 2 m/s 750 mmHg 82%
    04:00 +3°C° 0 mm 2 m/s 750 mmHg 81%
    05:00 +3°C° 0 mm 2 m/s 749 mmHg 80%
    06:00 +3°C° 0 mm 3 m/s 749 mmHg 78%
    07:00 +4°C° 0 mm 3 m/s 749 mmHg 75%
    08:00 +5°C° 0 mm 3 m/s 749 mmHg 72%
    09:00 +5°C° 0.2 mm 4 m/s 748 mmHg 77%
    10:00 +5°C° 0.2 mm 5 m/s 748 mmHg 82%
    11:00 +5°C° 0.2 mm 5 m/s 748 mmHg 86%
    12:00 +6°C° 0.6 mm 5 m/s 747 mmHg 90%
    13:00 +7°C° 0.6 mm 5 m/s 747 mmHg 93%
    14:00 +7°C° 0.6 mm 4 m/s 747 mmHg 96%
    15:00 +9°C° 0.3 mm 5 m/s 746 mmHg 94%
    16:00 +10°C° 0.3 mm 5 m/s 746 mmHg 93%
    17:00 +11°C° 0.3 mm 6 m/s 746 mmHg 91%
    18:00 +12°C° 0.1 mm 5 m/s 746 mmHg 92%
    19:00 +12°C° 0.1 mm 5 m/s 746 mmHg 92%
    20:00 +12°C° 0.1 mm 5 m/s 746 mmHg 93%
    21:00 +12°C° 0 mm 5 m/s 746 mmHg 93%
    22:00 +11°C° 0 mm 6 m/s 746 mmHg 93%
    23:00 +10°C° 0 mm 6 m/s 746 mmHg 94%

    Depois de amanhã, 22 Setembro, Domingo

    Tempo Temperatura Precipitação Vento Pressão Humidade
    00:00 +10°C° 0 mm 6 m/s 746 mmHg 94%
    01:00 +10°C° 0 mm 6 m/s 746 mmHg 94%
    02:00 +10°C° 0 mm 6 m/s 746 mmHg 95%
    03:00 +10°C° 0 mm 6 m/s 746 mmHg 94%
    04:00 +9°C° 0 mm 6 m/s 746 mmHg 94%
    05:00 +9°C° 0 mm 6 m/s 746 mmHg 94%
    06:00 +9°C° 0 mm 5 m/s 746 mmHg 92%
    07:00 +10°C° 0 mm 5 m/s 746 mmHg 91%
    08:00 +10°C° 0 mm 5 m/s 746 mmHg 89%
    09:00 +12°C° 0 mm 5 m/s 746 mmHg 84%
    10:00 +13°C° 0 mm 5 m/s 746 mmHg 80%
    11:00 +15°C° 0 mm 5 m/s 746 mmHg 75%
    12:00 +16°C° 0 mm 6 m/s 745 mmHg 70%
    13:00 +17°C° 0 mm 6 m/s 745 mmHg 66%
    14:00 +18°C° 0 mm 7 m/s 745 mmHg 62%
    15:00 +17°C° 0 mm 6 m/s 745 mmHg 66%
    16:00 +17°C° 0 mm 5 m/s 745 mmHg 69%
    17:00 +16°C° 0 mm 5 m/s 745 mmHg 73%
    18:00 +14°C° 0 mm 4 m/s 745 mmHg 79%
    19:00 +12°C° 0 mm 4 m/s 746 mmHg 85%
    20:00 +11°C° 0 mm 3 m/s 746 mmHg 91%
    21:00 +10°C° 0 mm 3 m/s 746 mmHg 87%
    22:00 +9°C° 0 mm 3 m/s 747 mmHg 84%
    23:00 +8°C° 0 mm 3 m/s 747 mmHg 80%

    23 Setembro, Segunda-feira

    Tempo Temperatura Precipitação Vento Pressão Humidade
    00:00 +7°C° 0 mm 3 m/s 748 mmHg 76%
    01:00 +7°C° 0 mm 3 m/s 748 mmHg 73%
    02:00 +5°C° 0 mm 3 m/s 748 mmHg 69%
    03:00 +5°C° 0 mm 3 m/s 749 mmHg 71%
    04:00 +4°C° 0 mm 3 m/s 749 mmHg 72%
    05:00 +4°C° 0 mm 3 m/s 749 mmHg 73%
    06:00 +4°C° 0 mm 3 m/s 749 mmHg 73%
    07:00 +4°C° 0 mm 3 m/s 749 mmHg 72%
    08:00 +4°C° 0 mm 3 m/s 749 mmHg 72%
    09:00 +7°C° 0 mm 3 m/s 749 mmHg 66%
    10:00 +8°C° 0 mm 3 m/s 750 mmHg 60%
    11:00 +9°C° 0 mm 3 m/s 750 mmHg 55%
    12:00 +10°C° 0 mm 3 m/s 749 mmHg 52%
    13:00 +10°C° 0 mm 3 m/s 749 mmHg 50%
    14:00 +11°C° 0 mm 3 m/s 748 mmHg 47%
    15:00 +11°C° 0 mm 3 m/s 748 mmHg 50%
    16:00 +10°C° 0 mm 3 m/s 748 mmHg 53%
    17:00 +10°C° 0 mm 2 m/s 748 mmHg 56%
    18:00 +9°C° 0 mm 3 m/s 748 mmHg 57%
    19:00 +8°C° 0 mm 3 m/s 748 mmHg 58%
    20:00 +7°C° 0 mm 3 m/s 748 mmHg 59%
    21:00 +5°C° 0 mm 3 m/s 748 mmHg 60%
    22:00 +5°C° 0 mm 3 m/s 748 mmHg 62%
    23:00 +4°C° 0 mm 3 m/s 748 mmHg 63%

    24 Setembro, Terça-feira

    Tempo Temperatura Precipitação Vento Pressão Humidade
    00:00 +4°C° 0 mm 4 m/s 748 mmHg 63%
    01:00 +4°C° 0 mm 4 m/s 748 mmHg 63%
    02:00 +4°C° 0 mm 4 m/s 748 mmHg 63%
    03:00 +3°C° 0 mm 4 m/s 748 mmHg 65%
    04:00 +3°C° 0 mm 4 m/s 747 mmHg 66%
    05:00 +3°C° 0 mm 4 m/s 747 mmHg 67%
    06:00 +3°C° 0 mm 4 m/s 747 mmHg 66%
    07:00 +4°C° 0 mm 4 m/s 747 mmHg 65%
    08:00 +3°C° 0 mm 5 m/s 747 mmHg 64%
    09:00 +6°C° 0 mm 5 m/s 747 mmHg 60%
    10:00 +8°C° 0 mm 5 m/s 747 mmHg 56%
    11:00 +9°C° 0 mm 5 m/s 747 mmHg 52%
    12:00 +11°C° 0 mm 4 m/s 747 mmHg 51%
    13:00 +12°C° 0 mm 4 m/s 747 mmHg 51%
    14:00 +12°C° 0 mm 4 m/s 746 mmHg 50%
    15:00 +12°C° 0 mm 3 m/s 746 mmHg 53%
    16:00 +11°C° 0 mm 3 m/s 746 mmHg 57%
    17:00 +11°C° 0 mm 3 m/s 746 mmHg 60%
    18:00 +9°C° 0 mm 3 m/s 746 mmHg 63%
    19:00 +7°C° 0 mm 3 m/s 746 mmHg 65%
    20:00 +5°C° 0 mm 3 m/s 746 mmHg 68%
    21:00 +4°C° 0 mm 3 m/s 746 mmHg 68%
    22:00 +4°C° 0 mm 3 m/s 746 mmHg 68%
    23:00 +3°C° 0 mm 3 m/s 747 mmHg 68%

    25 Setembro, Quarta-feira

    Tempo Temperatura Precipitação Vento Pressão Humidade
    00:00 +3°C° 0 mm 3 m/s 746 mmHg 69%
    01:00 +2°C° 0 mm 3 m/s 746 mmHg 71%
    02:00 +2°C° 0 mm 3 m/s 746 mmHg 72%
    03:00 +2°C° 0 mm 3 m/s 746 mmHg 74%
    04:00 +1°C° 0 mm 3 m/s 746 mmHg 76%
    05:00 +1°C° 0 mm 3 m/s 746 mmHg 77%
    06:00 +2°C° 0 mm 3 m/s 746 mmHg 74%
    07:00 +3°C° 0 mm 3 m/s 746 mmHg 71%
    08:00 +3°C° 0 mm 3 m/s 747 mmHg 67%
    09:00 +5°C° 0 mm 3 m/s 747 mmHg 63%
    10:00 +8°C° 0 mm 3 m/s 747 mmHg 58%
    11:00 +10°C° 0 mm 4 m/s 747 mmHg 53%
    12:00 +11°C° 0 mm 3 m/s 747 mmHg 51%
    13:00 +12°C° 0 mm 3 m/s 747 mmHg 49%
    14:00 +12°C° 0 mm 3 m/s 746 mmHg 46%
    15:00 +12°C° 0 mm 3 m/s 746 mmHg 50%
    16:00 +11°C° 0 mm 3 m/s 746 mmHg 54%
    17:00 +10°C° 0 mm 3 m/s 746 mmHg 58%
    18:00 +9°C° 0 mm 3 m/s 746 mmHg 61%
    19:00 +7°C° 0 mm 3 m/s 747 mmHg 64%
    20:00 +5°C° 0 mm 3 m/s 747 mmHg 67%
    21:00 +4°C° 0 mm 3 m/s 747 mmHg 68%
    22:00 +4°C° 0 mm 4 m/s 747 mmHg 68%
    23:00 +3°C° 0 mm 4 m/s 747 mmHg 68%
    Mostrar mais